This is the latest recevied weather packets stored in our database for station/object OK1FET-5. If no packets are shown the sender has not sent any weather packets the latest 10 day(s).
| Time | Temp. | Humidity | Pressure | Rain* | Wind** | Luminosity | Snow |
|---|---|---|---|---|---|---|---|
| 1788229815 | 13.33° C | 77% | 1020 hPa | - | - | - | - |
| 1788229220 | 13.89° C | 77% | 1019.9 hPa | - | - | - | - |
| 1788228624 | 13.89° C | 77% | 1019.8 hPa | - | - | - | - |
| 1788228028 | 14.44° C | 77% | 1019.7 hPa | - | - | - | - |
| 1788227432 | 14.44° C | 76% | 1019.7 hPa | - | - | - | - |
| 1788226844 | 14.44° C | 75% | 1019.6 hPa | - | - | - | - |
| 1788226241 | 14.44° C | 74% | 1019.5 hPa | - | - | - | - |
| 1788225645 | 14.44° C | 74% | 1019.5 hPa | - | - | - | - |
| 1788225049 | 15° C | 73% | 1019.5 hPa | - | - | - | - |
| 1788224454 | 15° C | 73% | 1019.5 hPa | - | - | - | - |
| 1788223858 | 15° C | 72% | 1019.5 hPa | - | - | - | - |
| 1788223262 | 15° C | 70% | 1019.6 hPa | - | - | - | - |
| 1788222666 | 15.56° C | 69% | 1019.6 hPa | - | - | - | - |
| 1788221475 | 16.67° C | 67% | 1019.4 hPa | - | - | - | - |
| 1788220879 | 16.67° C | 67% | 1019.4 hPa | - | - | - | - |
| 1788220283 | 16.11° C | 67% | 1019.2 hPa | - | - | - | - |
| 1788219688 | 16.67° C | 67% | 1018.9 hPa | - | - | - | - |
| 1788219092 | 16.67° C | 67% | 1018.9 hPa | - | - | - | - |
| 1788218496 | 16.67° C | 67% | 1019 hPa | - | - | - | - |
| 1788217900 | 16.67° C | 67% | 1019 hPa | - | - | - | - |
| 1788217305 | 16.11° C | 68% | 1018.9 hPa | - | - | - | - |
| 1788216709 | 16.11° C | 68% | 1018.9 hPa | - | - | - | - |
| 1788216113 | 16.67° C | 67% | 1018.8 hPa | - | - | - | - |
| 1788215518 | 16.67° C | 67% | 1018.8 hPa | - | - | - | - |
| 1788214921 | 16.67° C | 68% | 1018.7 hPa | - | - | - | - |
* Rain since midnight (hover to see other rain measurements)
** Current wind speed in m/s (hover to see current wind gust speed)